Location: Makanda
(37.6176°N, 89.2090°W)
Time: 12:15:36
(UTC+00:00)

Cosmos 2219 - Pass Details

Date: 23 September 2019
Orbit: 834 x 859 km, 71.1° (Epoch: 21 October)

Event Time Altitude Azimuth Distance (km) Brightness Sun altitude
Rises 00:52:32 0° 208° (SSW) 3,417 6.6 -12.4°
Reaches altitude 10° 00:55:00 10° 211° (SSW) 2,486 5.9 -12.8°
Maximum altitude 01:00:41 67° 293° (WNW) 927 3.6 -13.9°
Drops below altitude 10° 01:06:25 10° 17° (NNE) 2,498 5.6 -15.1°
Sets 01:08:54 0° 20° (NNE) 3,436 6.3 -15.5°
